Weather observations for the past three days for
Burbank - Bob Hope Airport
Imperial (Metric)
Date Time (pdt) Wind (mph) Vis. (mi.) Weather Sky Cond. Temperature (ºF) Relative Humidity Wind Chill (°F) Heat Index (°F) Pressure Precipitation (in)
Air Dwpt 6 hour altimeter (in) sea level (mb) 1 hr 3 hr 6 hr
Max. Min.
10 12:53 SW 9 5.00 Fair with Haze CLR 80.1 55 42% 80 29.92 1012.0
10 11:53 S 7 5.00 Fair with Haze CLR 77 57 50% 79 29.93 1012.4
10 10:53 S 5 5.00 Fair with Haze CLR 71.1 55.9 71.1 57 59% 29.93 1012.5
10 09:53 E 5 5.00 Fair with Haze CLR 66 55.9 70% 29.94 1012.7
10 08:53 S 3 5.00 Partly Cloudy with Haze SCT007 62.1 55 78% 29.93 1012.4
10 07:53 NE 3 4.00 Fog/Mist BKN005 57 54 90% 29.93 1012.7
10 06:53 NW 3 3.00 Fog/Mist OVC005 57.9 55 90% 29.92 1012.1
10 05:53 NE 5 3.00 Fog/Mist OVC006 57.9 55 90% 29.91 1011.8
10 04:53 S 5 3.00 Fog/Mist OVC004 57.9 55.9 62.1 57.9 93% 29.91 1011.8
10 03:53 Vrbl 3 2.00 Fog/Mist OVC005 59 55.9 90% 29.91 1011.6
10 02:53 S 6 2.00 Fog/Mist OVC004 59 55.9 90% 29.91 1011.8
10 01:53 SE 7 2.00 Fog/Mist OVC006 59 55.9 90% 29.91 1011.7
10 00:53 SE 6 5.00 Fog/Mist CLR 60.1 55.9 86% 29.92 1012.0
09 23:53 SE 7 9.00 Fair CLR 62.1 55.9 80% 29.92 1012.0
09 22:53 Vrbl 5 10.00 Fair CLR 62.1 55.9 80.1 62.1 80% 29.92 1012.1
09 21:53 SE 7 10.00 Fair CLR 64 57 78% 29.92 1012.1
09 20:53 SE 7 10.00 Fair CLR 64.9 55.9 73% 29.9 1011.6
09 19:53 SE 12 10.00 Fair CLR 68 57 68% 29.88 1010.6
09 18:53 SE 10 10.00 Fair CLR 71.1 55 57% 29.86 1010.2
09 17:53 S 12 10.00 Fair CLR 75.9 55.9 50% 78 29.86 1009.9
09 16:53 S 12 10.00 Fair CLR 80.1 55.9 80.1 70 44% 80 29.86 1009.8
09 15:53 S 9 10.00 Fair CLR 79 55.9 45% 80 29.86 1010.0
09 14:53 S 10 10.00 Fair CLR 79 57 47% 80 29.88 1010.6
09 13:53 S 7 10.00 Fair CLR 79 57 47% 80 29.9 1011.2
09 12:53 S 10 5.00 Fair with Haze CLR 77 57.9 52% 79 29.91 1011.6
09 11:53 Vrbl 5 4.00 Fair with Haze CLR 73.9 57.9 57% 29.93 1012.2
09 10:53 Calm 4.00 Fair with Haze CLR 70 57 70 57.9 64% 29.94 1012.9
09 09:53 Calm 4.00 A Few Clouds with Haze FEW012 64.9 57 76% 29.94 1012.8
09 08:53 Calm 1.50 Fog/Mist OVC008 61 57 87% 29.95 1013.2
09 07:53 E 5 1.50 Fog/Mist OVC006 59 55.9 90% 29.95 1013.2
09 06:53 NE 5 2.00 Fog/Mist OVC006 59 55.9 90% 29.94 1013.1
09 05:53 E 3 3.00 Fog/Mist OVC005 59 55.9 90% 29.93 1012.5
09 04:53 Calm 4.00 Fog/Mist OVC006 59 55.9 61 59 90% 29.93 1012.3
09 03:53 E 5 5.00 Fog/Mist OVC006 59 55.9 90% 29.93 1012.4
09 02:53 E 5 5.00 Fog/Mist OVC006 59 55.9 90% 29.94 1012.6
09 01:53 Calm 7.00 Overcast OVC007 59 55.9 90% 29.94 1012.8
09 00:53 S 5 9.00 Fair CLR 59 55 87% 29.95 1013.2
08 23:53 SE 6 10.00 Fair CLR 60.1 55.9 86% 29.96 1013.5
08 22:53 S 5 10.00 Fair CLR 61 55.9 75 61 84% 29.96 1013.5
08 21:53 E 6 10.00 Fair CLR 62.1 55.9 80% 29.96 1013.5
08 20:53 S 6 10.00 Fair CLR 63 55.9 78% 29.95 1013.2
08 19:53 S 7 9.00 Fair CLR 64 55.9 75% 29.93 1012.5
08 18:53 S 9 10.00 Fair CLR 66.9 57 71% 29.92 1012.1
08 17:53 S 13 10.00 Fair CLR 71.1 57 61% 29.91 1011.6
08 16:53 S 13 10.00 Fair CLR 75 57 78.1 64.9 54% 78 29.91 1011.6
08 15:53 S 10 10.00 Fair CLR 75.9 57 52% 78 29.92 1012.1
08 14:53 S 7 10.00 Fair CLR 75.9 57 52% 78 29.95 1012.9
08 13:53 SE 7 10.00 Fair CLR 75.9 57 52% 78 29.96 1013.4
08 12:53 Vrbl 5 10.00 Fair CLR 73 55.9 55% 29.98 1014.1
08 11:53 SW 6 8.00 Fair CLR 69.1 55.9 63% 30 1014.9
08 10:53 Vrbl 5 9.00 A Few Clouds FEW016 66 55.9 66 57.9 70% 30.02 1015.5
08 09:53 Vrbl 5 4.00 Mostly Cloudy with Haze BKN010 62.1 55 78% 30.02 1015.7
08 08:53 Vrbl 3 4.00 Overcast with Haze OVC009 60.1 55 84% 30.02 1015.6
08 07:53 Calm 4.00 Fog/Mist OVC008 59 55 87% 30.02 1015.8
08 06:53 Calm 4.00 Fog/Mist OVC009 59 55 87% 30.02 1015.5
08 05:53 E 3 8.00 Overcast OVC009 59 55 87% 30.01 1015.1
08 04:53 E 5 7.00 Overcast OVC008 59 55 60.1 57.9 87% 30 1014.7
08 03:53 S 3 6.00 Fog/Mist OVC008 57.9 55 90% 29.99 1014.5
08 02:53 S 5 10.00 Fair CLR 57.9 55 90% 29.99 1014.6
08 01:53 Calm 10.00 Fair CLR 59 55 87% 30 1014.8
08 00:53 Calm 10.00 Fair CLR 59 54 83% 30.01 1015.3
07 23:53 Calm 10.00 Fair CLR 59 55 87% 30.01 1015.2
07 22:53 S 6 10.00 Fair CLR 60.1 55 75.9 60.1 84% 30 1014.9
07 21:53 SE 10 10.00 Fair CLR 63 54 73% 29.99 1014.6
07 20:53 SE 10 10.00 Fair CLR 64 54 70% 29.97 1013.8
07 19:53 SE 13 10.00 Fair CLR 64.9 54 68% 29.95 1013.1
07 18:53 S 9 10.00 Fair CLR 69.1 54 59% 29.93 1012.4
07 17:53 S 12 10.00 Fair CLR 73 55 53% 29.93 1012.4
07 16:53 S 12 10.00 Fair CLR 75 55 79 72 50% 78 29.93 1012.3
07 15:53 S 13 10.00 Fair CLR 78.1 54 43% 79 29.93 1012.4
07 14:53 S 9 10.00 Fair CLR 77 55 47% 78 29.95 1012.9
07 13:53 SW 7 10.00 Fair CLR 78.1 55 45% 79 29.96 1013.4
Date Time (pdt) Wind (mph) Vis. (mi.) Weather Sky Cond. Air Dwpt Max. Min. Relative Humidity Wind Chill (°F) Heat Index (°F) altimeter (in) sea level (mb) 1 hr 3 hr 6 hr
6 hour
Temperature (ºF) Pressure Precipitation (in)